Temperature
5 6 5 5 5 5 5 5 5 6 6 7 7 7 7 8 8 8 8 9 9 9 9 9 8 8 8 8 7 7 7 7 7 7 6 6 6 6 6 6 6 6 6 6
6 6 5 5 5 5 6 6 5 6 6 7 7 7 7 7 8 8 9 9 9 9 9 8 8 8 7 7 7 6 6 6 6 5 5 5 5 5 5 5 5 5 5 5
5 5 6 5 5 5 5 5 6 6 7 7 7 6 7 8 8 9 9 9 9 9 9 9 8 7 7 7 6 6 5 5 5 4 4 4 4 4 4 4 4 4 4 4
4 5 5 6 6 6 6 6 6 6 6 6 7 8 8 9 9 9 9 9 9 9 9 8 8 7 6 6 5 5 5 4 4 4 4 3 3 3 3 3 3 3 3 3
4 4 5 6 6 6 5 6 6 6 6 7 7 7 7 8 9 9 9 9 9 9 8 8 7 7 6 6 5 4 4 4 3 3 3 3 2 2 2 2 2 2 2 2
4 5 5 6 7 7 6 6 6 6 5 6 6 5 6 8 8 9 9 9 9 8 8 7 7 6 6 5 4 4 3 3 3 3 2 2 2 2 2 1 1 1 1 1
4 5 5 6 6 7 6 6 6 6 6 6 5 6 7 8 8 8 8 8 8 8 7 7 6 6 5 4 4 3 3 2 2 2 2 2 2 1 1 1 0 0 0 0
4 5 5 6 6 6 6 6 6 6 7 7 6 7 7 7 7 7 7 7 7 7 6 6 5 5 4 4 3 2 2 2 2 2 1 1 1 1 1 0 0 0 -0 -0
4 5 5 5 5 6 6 6 6 7 7 7 7 7 7 7 7 7 6 6 6 6 6 5 5 4 4 3 3 2 2 2 1 1 1 1 1 0 0 -0 -0 -0 -0 -0
3 4 4 5 6 6 6 6 6 6 7 7 6 6 6 6 6 6 6 5 5 5 5 4 4 4 3 3 2 2 2 1 1 1 1 0 0 0 0 -0 -0 -0 -0 -1
3 4 4 5 5 6 6 6 6 6 6 6 6 6 6 6 5 5 5 5 5 4 4 4 3 3 3 2 2 2 1 1 1 1 0 0 0 -0 -0 -0 -0 -0 -0 -1
3 3 3 4 5 5 5 5 5 5 5 5 5 5 5 5 5 5 5 4 4 4 4 3 3 3 2 2 2 1 1 1 1 0 0 0 -0 -0 -0 -0 -0 -1 -1 -1
3 3 3 4 4 4 5 5 5 5 4 4 4 4 4 4 4 4 4 4 4 3 3 3 3 3 2 2 2 1 1 1 1 0 0 -0 -0 -0 -0 -0 -1 -1 -1 -1
3 3 3 3 3 4 4 4 4 4 4 3 3 3 3 3 3 3 3 3 3 3 3 2 2 2 2 2 1 1 1 1 0 0 -0 -0 -0 -1 -1 -1 -1 -1 -1 -1
2 2 2 2 3 3 3 3 3 3 3 3 3 3 3 3 3 2 2 2 2 2 2 2 2 2 2 1 1 1 0 0 0 0 -0 -0 -1 -1 -1 -1 -1 -1 -1 -1
1 2 2 2 2 2 2 2 2 2 2 2 2 2 2 2 2 2 1 1 2 2 2 2 2 1 1 1 1 1 0 0 -0 -0 -0 -1 -1 -1 -1 -1 -1 -1 -1 -1
1 1 1 1 1 1 1 1 1 1 1 1 1 1 1 1 1 1 1 1 1 1 1 1 1 1 1 0 0 0 0 -0 -0 -0 -0 -1 -1 -1 -1 -1 -1 -1 -1 -1
0 0 1 0 0 0 0 0 1 1 1 1 0 0 0 0 0 0 0 0 0 0 0 0 0 0 0 -0 -0 -0 -0 -0 -1 -0 -0 -1 -1 -1 -1 -1 -1 -1 -1 -1
0 0 0 0 -0 -0 -0 -0 -0 -0 -0 -0 -0 -0 -0 -0 -0 -0 -0 -0 -0 -0 -0 -0 -0 -0 -0 -0 -1 -0 -0 -1 -1 -1 -1 -1 -1 -1 -1 -1 -1 -1 -1 -1
-1 -0 -0 -0 -0 -1 -1 -1 -1 -1 -1 -1 -1 -1 -1 -1 -1 -1 -1 -1 -1 -1 -1 -1 -1 -1 -1 -1 -1 -1 -1 -1 -1 -1 -1 -1 -1 -1 -1 -1 -1 -1 -2 -2
-1 -1 -1 -1 -1 -1 -1 -1 -1 -1 -1 -1 -1 -1 -1 -1 -1 -2 -2 -2 -2 -2 -2 -1 -1 -1 -1 -1 -1 -1 -1 -1 -1 -1 -1 -2 -2 -1 -1 -1 -2 -2 -2 -2
-2 -2 -2 -2 -2 -2 -2 -2 -2 -2 -2 -2 -2 -2 -2 -2 -2 -2 -2 -2 -2 -2 -2 -2 -2 -2 -2 -2 -2 -2 -2 -2 -2 -2 -2 -2 -2 -2 -2 -2 -2 -2 -2 -3
-2 -2 -2 -2 -2 -2 -2 -2 -2 -2 -2 -2 -2 -2 -2 -2 -2 -2 -2 -2 -3 -2 -2 -2 -2 -2 -2 -2 -2 -2 -2 -2 -2 -2 -2 -2 -3 -3 -3 -3 -3 -3 -3 -3
-2 -3 -3 -3 -3 -3 -3 -3 -3 -3 -3 -3 -3 -3 -3 -3 -3 -3 -3 -3 -3 -3 -3 -3 -3 -3 -3 -3 -3 -3 -3 -3 -3 -3 -3 -3 -3 -3 -3 -4 -4 -4 -4 -4
-3 -3 -3 -3 -3 -3 -3 -3 -3 -3 -3 -3 -3 -3 -4 -4 -3 -3 -3 -3 -3 -3 -3 -3 -3 -3 -3 -3 -3 -3 -3 -3 -4 -4 -4 -4 -4 -4 -4 -4 -4 -5 -5 -5
-3 -3 -3 -3 -3 -3 -3 -3 -3 -3 -3 -3 -3 -4 -4 -4 -4 -4 -4 -4 -4 -4 -4 -4 -4 -4 -4 -4 -4 -4 -4 -4 -4 -4 -5 -5 -5 -5 -5 -5 -5 -5 -5 -5
-3 -3 -3 -3 -3 -3 -3 -3 -4 -4 -4 -4 -4 -4 -4 -4 -4 -4 -4 -5 -5 -5 -5 -5 -5 -5 -5 -5 -5 -5 -5 -5 -5 -5 -5 -5 -5 -5 -5 -5 -6 -6 -6 -6
Wind_Speed
4 3 4 5 7 10 10 9 8 7 8 10 7 6 5 4 5 5 6 6 6 6 5 5 4 4 4 3 3 4 5 5 4 4 4 5 5 5 5 5 5 5 6 6
2 1 3 4 7 9 10 8 10 10 12 8 5 4 4 6 7 8 8 8 7 7 6 6 6 5 5 4 4 5 5 4 4 4 4 4 4 5 5 5 5 5 5 5
2 2 1 4 7 10 7 7 8 12 12 6 5 7 8 8 9 9 9 9 9 9 8 8 7 7 6 5 5 5 5 5 5 5 5 4 5 5 5 5 5 5 5 5
0 1 4 6 3 6 8 8 9 8 7 6 8 7 5 6 9 9 8 8 8 7 7 6 5 6 5 6 6 6 5 5 5 5 5 5 5 5 4 4 4 4 4 5
1 2 5 6 2 3 5 5 6 8 8 6 3 0 3 4 6 7 7 6 5 5 5 5 6 7 7 6 6 6 6 6 6 6 6 6 5 5 4 4 4 3 4 4
2 2 4 4 3 1 2 4 3 3 5 3 4 2 4 2 2 2 3 3 4 5 5 6 6 7 7 7 7 7 6 6 6 6 6 6 6 5 4 4 4 4 4 3
4 4 5 5 4 1 2 4 4 1 2 3 4 4 1 2 3 3 3 4 4 5 5 5 6 7 7 7 7 6 6 6 6 6 6 6 5 4 5 5 5 4 4 3
3 4 6 3 1 2 4 2 2 2 1 2 2 2 3 4 4 4 4 3 4 4 3 4 5 7 7 7 5 6 6 6 6 6 5 5 6 5 5 5 5 4 3 2
5 5 3 2 2 3 1 1 1 1 1 3 3 2 2 2 3 2 2 2 2 3 3 3 5 6 7 6 6 7 7 6 6 6 5 6 6 6 5 5 4 4 3 3
3 5 4 3 3 3 2 1 2 2 2 2 2 2 2 2 1 1 0 1 2 3 3 3 4 5 6 6 7 7 7 6 6 6 6 5 5 5 5 5 5 5 4 4
4 5 5 4 2 2 2 2 3 3 2 2 2 1 1 0 0 0 1 1 2 3 4 4 4 5 5 6 8 7 7 6 6 6 6 6 5 5 6 5 6 6 5 5
5 4 4 4 3 2 2 2 2 1 2 3 2 1 1 1 1 1 1 1 2 3 3 4 4 5 6 7 8 8 7 7 6 6 5 5 5 3 6 6 8 9 8 7
6 6 5 5 4 2 1 1 1 1 1 1 2 1 1 1 1 2 2 2 3 4 4 4 4 5 6 7 8 9 8 7 6 6 6 6 5 5 4 4 6 8 9 9
6 4 4 3 2 2 1 1 2 2 3 2 2 2 2 2 2 2 3 3 3 3 3 4 4 5 5 7 8 8 7 8 7 6 6 6 6 6 5 5 4 3 5 9
6 5 5 4 1 1 1 2 2 2 3 3 3 3 3 3 3 4 3 3 2 2 3 3 4 4 4 6 8 8 7 6 6 6 6 6 5 5 5 5 5 4 3 4
6 5 2 2 1 1 1 1 1 1 2 2 3 3 3 3 3 3 3 2 2 3 3 3 4 3 3 5 6 6 6 9 8 6 6 6 6 6 6 6 5 5 5 5
4 4 3 3 3 2 2 1 1 1 2 2 3 3 3 3 3 4 4 4 3 3 3 2 3 2 2 4 5 5 5 7 10 7 6 7 7 7 7 6 6 6 6 7
3 3 3 3 3 2 1 1 1 1 2 2 3 3 3 3 4 5 5 4 3 3 2 3 2 2 2 3 3 3 4 5 6 6 6 7 7 7 7 7 7 7 6 6
3 2 2 1 1 0 0 1 2 2 2 3 3 3 3 3 4 5 4 3 3 3 4 4 4 2 2 3 3 3 4 4 5 5 5 8 8 6 7 7 7 7 6 6
3 3 2 2 2 2 1 2 2 2 3 3 3 3 3 4 4 4 4 3 2 3 4 5 3 2 3 3 3 3 4 5 5 5 5 5 6 6 7 7 7 7 7 7
3 3 2 2 2 3 2 2 2 2 3 3 3 3 4 4 4 3 3 3 3 4 5 5 3 3 3 3 4 3 4 4 5 5 5 5 5 6 6 6 6 6 6 6
2 2 2 2 2 2 2 2 2 3 3 3 3 3 4 4 4 4 3 2 4 7 5 3 3 5 5 4 2 3 3 4 4 4 5 5 5 5 5 6 6 6 6 6
2 2 2 2 1 2 2 2 2 2 3 3 3 3 3 4 3 3 4 3 4 7 5 4 6 8 7 3 2 3 4 4 4 4 5 5 5 5 5 6 5 5 5 5
3 3 2 2 1 1 2 3 3 2 3 3 3 3 3 3 3 2 3 7 8 8 5 6 8 8 5 2 2 2 3 3 4 4 4 4 4 4 5 5 5 5 5 6
3 3 2 2 2 2 3 2 2 3 3 3 3 3 2 2 3 4 4 5 8 7 5 6 8 7 3 2 2 2 2 3 3 3 3 3 4 4 4 5 5 5 5 5
3 3 3 3 3 2 2 2 2 2 2 3 3 3 3 3 3 4 4 4 6 6 5 4 4 4 3 3 3 3 3 3 4 4 3 4 4 4 4 4 5 5 5 5
3 3 2 2 2 2 2 2 2 2 2 3 3 3 3 3 3 4 4 4 4 4 4 4 4 3 3 3 3 3 3 3 3 3 3 3 3 4 4 5 4 4 4 5
Wind_Direction
248 227 180 196 199 194 204 209 214 241 245 259 257 246 229 208 192 184 189 190 190 190 188 181 176 172 164 155 142 134 128 124 121 111 101 94 87 81 77 76 78 78 80 79
303 244 201 232 221 210 219 221 233 252 263 256 249 225 217 208 198 200 206 206 202 197 191 191 189 183 174 167 158 143 140 139 130 122 113 107 102 96 89 83 80 80 78 80
296 322 24 268 229 210 208 209 204 233 248 244 233 225 219 214 207 210 214 209 204 202 200 198 192 184 181 174 156 149 149 144 141 136 130 126 121 108 100 92 88 84 80 81
232 61 246 253 245 204 215 234 223 236 248 237 233 235 227 212 206 215 217 210 205 198 194 187 176 170 163 156 156 157 156 155 154 149 143 137 129 122 115 105 100 94 88 86
168 238 284 302 284 184 196 263 238 236 250 251 235 257 287 229 207 213 210 200 195 184 174 164 167 164 156 159 161 164 169 171 167 162 157 153 148 141 128 119 111 102 98 94
190 219 255 273 305 233 140 297 301 232 242 233 145 178 264 238 170 162 147 145 149 142 141 154 163 157 160 169 172 182 182 177 169 166 165 163 157 146 134 131 128 120 107 100
220 241 269 276 290 109 151 273 314 281 240 178 178 210 255 81 78 92 98 106 123 134 149 164 159 158 169 177 189 186 170 164 164 165 165 160 151 145 142 138 132 128 121 105
198 228 263 307 89 167 233 287 338 356 41 133 137 78 71 71 80 86 90 98 119 135 149 156 162 166 178 191 185 163 159 162 164 163 164 159 152 149 148 149 147 147 143 135
208 226 267 291 246 291 297 313 335 16 44 104 104 88 76 72 72 70 89 111 127 148 155 169 179 179 189 189 166 160 162 167 165 162 161 160 163 162 160 163 166 171 175 181
283 285 295 306 315 340 3 357 356 34 70 96 104 105 88 79 68 57 69 159 156 160 181 200 198 197 196 177 165 165 171 172 169 168 168 168 173 176 178 182 184 187 193 200
275 290 310 315 329 341 13 29 30 29 42 68 95 92 116 123 274 264 270 224 188 199 215 220 206 203 192 176 168 173 177 177 176 178 177 179 185 193 194 201 197 196 201 197
266 282 277 285 306 328 350 353 354 15 22 31 50 29 356 294 279 270 268 249 234 229 231 229 214 208 195 183 177 178 183 184 184 182 181 181 184 199 216 211 218 220 214 207
271 295 283 278 296 304 275 330 353 45 60 13 10 15 355 304 296 296 280 265 249 243 239 231 221 216 203 189 185 188 191 188 186 186 186 188 191 194 200 215 225 228 226 224
288 293 279 280 283 328 27 34 50 50 42 38 18 11 2 337 317 301 288 280 270 256 244 231 225 225 208 191 190 196 195 194 191 192 190 192 196 197 196 199 211 232 236 234
304 292 268 278 309 1 32 66 61 39 26 20 17 10 356 335 313 304 304 305 291 267 255 242 237 236 205 192 194 197 197 198 194 189 188 193 194 196 199 205 213 219 224 243
307 309 299 281 281 306 351 22 13 342 356 350 351 345 332 319 314 316 319 321 297 277 269 256 250 244 207 198 198 200 204 202 192 189 191 194 197 200 205 210 216 220 226 227
293 298 302 299 288 290 299 304 292 311 327 329 327 329 333 335 333 329 326 318 295 282 280 275 278 266 219 207 204 205 202 202 199 197 199 201 204 208 209 210 218 226 232 228
280 281 285 282 277 274 302 341 6 1 339 329 332 334 334 329 320 316 316 319 319 313 310 302 296 278 237 220 214 208 201 201 201 205 206 206 210 211 211 215 221 230 238 238
343 343 349 350 337 332 341 348 355 352 343 336 327 318 314 315 316 316 319 320 322 316 322 316 309 290 256 238 223 209 206 206 209 212 211 215 216 214 215 219 226 230 232 231
360 10 21 22 31 37 21 1 357 349 339 335 326 320 320 320 321 321 316 298 300 309 314 316 311 287 264 249 236 217 212 215 217 217 216 217 218 218 219 223 227 230 232 233
346 354 14 27 26 28 18 357 347 338 337 337 325 315 313 316 321 319 312 303 322 329 322 318 313 294 274 266 242 228 222 223 222 221 220 223 227 227 227 228 230 231 233 236
318 324 335 351 359 355 358 357 347 335 336 335 331 329 327 324 324 317 296 294 317 323 325 309 302 298 295 280 242 233 233 234 232 227 226 227 228 231 234 234 235 236 237 239
287 289 288 292 300 310 331 339 335 330 324 321 323 323 319 313 311 310 311 317 317 317 322 302 307 307 303 283 251 241 238 238 238 234 231 230 232 233 236 238 239 240 242 244
258 259 267 276 272 279 299 307 313 314 313 311 310 312 315 317 312 300 301 313 321 319 315 310 314 311 311 298 265 253 248 246 246 242 238 236 234 234 236 239 242 243 246 249
247 243 241 247 259 265 270 287 302 310 318 317 317 316 315 304 295 305 310 312 319 324 321 317 318 319 323 301 284 272 263 257 258 255 244 243 240 239 240 240 242 246 248 250
243 242 242 240 248 255 256 262 278 292 304 312 316 316 320 317 309 308 311 314 318 328 329 321 322 322 319 307 295 285 275 275 276 264 252 250 246 244 244 245 246 249 251 251
244 241 244 254 250 234 234 245 262 278 290 299 304 313 324 325 324 323 322 323 327 327 325 325 326 323 319 313 305 296 284 274 269 266 260 255 252 251 250 249 252 253 254 254
Height
1465 1464 1465 1465 1466 1468 1470 1470 1472 1467 1465 1458 1456 1456 1456 1457 1458 1459 1461 1463 1465 1467 1468 1470 1472 1473 1474 1474 1475 1476 1476 1477 1477 1478 1478 1478 1478 1479 1479 1479 1479 1479 1480 1480
1463 1462 1463 1463 1463 1465 1465 1465 1464 1463 1459 1453 1453 1454 1454 1455 1456 1457 1459 1461 1463 1465 1467 1468 1469 1471 1471 1472 1473 1473 1474 1474 1474 1475 1475 1475 1476 1476 1476 1477 1477 1477 1477 1478
1467 1463 1461 1463 1458 1458 1459 1458 1458 1457 1452 1451 1452 1451 1451 1452 1453 1454 1456 1458 1460 1462 1464 1466 1467 1468 1469 1470 1470 1471 1471 1471 1472 1472 1473 1473 1474 1474 1475 1475 1475 1475 1476 1476
1467 1465 1466 1458 1451 1451 1453 1451 1452 1449 1447 1447 1447 1447 1448 1449 1450 1452 1454 1456 1458 1460 1461 1463 1464 1466 1466 1467 1467 1468 1468 1469 1469 1470 1471 1471 1472 1472 1473 1473 1474 1474 1474 1474
1468 1467 1463 1454 1450 1450 1451 1449 1446 1446 1445 1444 1444 1446 1446 1446 1447 1449 1451 1453 1455 1457 1459 1460 1461 1462 1463 1464 1464 1465 1465 1466 1467 1468 1468 1469 1470 1471 1471 1472 1472 1472 1473 1473
1466 1464 1463 1454 1448 1447 1449 1449 1444 1443 1443 1443 1444 1448 1446 1444 1445 1447 1449 1451 1453 1454 1456 1457 1458 1459 1460 1460 1461 1462 1463 1464 1464 1465 1466 1467 1468 1469 1469 1470 1470 1471 1472 1472
1464 1463 1459 1451 1448 1448 1454 1451 1445 1443 1442 1442 1443 1445 1444 1444 1445 1446 1447 1449 1450 1452 1453 1454 1455 1456 1456 1457 1458 1459 1460 1461 1462 1463 1464 1465 1466 1467 1468 1468 1469 1470 1470 1471
1463 1462 1460 1449 1448 1450 1449 1446 1444 1443 1442 1442 1443 1443 1443 1444 1445 1445 1446 1448 1449 1450 1451 1452 1452 1453 1453 1454 1455 1456 1457 1458 1459 1460 1461 1463 1464 1465 1466 1467 1467 1468 1469 1470
1459 1457 1452 1449 1448 1448 1447 1446 1445 1444 1443 1443 1443 1444 1444 1444 1445 1445 1446 1447 1448 1448 1449 1449 1450 1450 1451 1452 1452 1453 1454 1455 1457 1458 1459 1460 1461 1463 1464 1465 1466 1466 1467 1468
1457 1452 1450 1448 1447 1447 1446 1446 1445 1445 1444 1444 1444 1444 1444 1445 1445 1445 1445 1446 1446 1446 1447 1447 1447 1448 1448 1449 1450 1450 1451 1453 1454 1455 1456 1458 1459 1460 1461 1462 1463 1464 1465 1466
1455 1452 1449 1447 1447 1446 1446 1446 1445 1445 1445 1444 1444 1444 1444 1444 1444 1444 1444 1444 1444 1444 1444 1444 1445 1445 1446 1446 1447 1448 1449 1450 1451 1453 1454 1455 1457 1458 1459 1460 1461 1462 1463 1464
1454 1452 1451 1448 1447 1446 1445 1445 1445 1444 1444 1444 1444 1443 1443 1443 1442 1442 1442 1442 1441 1441 1441 1441 1441 1442 1443 1443 1444 1445 1446 1447 1448 1450 1451 1452 1454 1455 1456 1457 1458 1459 1460 1461
1452 1450 1449 1447 1446 1445 1444 1443 1443 1443 1443 1442 1442 1442 1441 1441 1440 1440 1439 1439 1439 1438 1438 1438 1438 1439 1439 1440 1441 1441 1442 1444 1445 1446 1448 1449 1450 1452 1453 1454 1455 1456 1457 1457
1449 1448 1446 1444 1444 1443 1442 1442 1442 1441 1441 1441 1440 1440 1439 1438 1438 1437 1436 1436 1435 1435 1435 1434 1435 1435 1436 1436 1437 1438 1439 1440 1442 1443 1444 1446 1447 1448 1449 1450 1451 1452 1454 1454
1446 1445 1444 1442 1441 1441 1440 1440 1440 1439 1439 1439 1438 1437 1437 1436 1435 1434 1433 1433 1432 1431 1431 1431 1431 1432 1432 1432 1433 1434 1435 1436 1438 1439 1440 1442 1443 1444 1446 1447 1448 1449 1449 1450
1443 1441 1440 1439 1439 1439 1438 1438 1438 1437 1437 1436 1436 1435 1434 1433 1432 1431 1430 1429 1429 1428 1428 1427 1427 1428 1428 1429 1429 1430 1431 1432 1434 1435 1436 1438 1439 1440 1441 1442 1443 1444 1445 1446
1441 1439 1438 1437 1437 1436 1436 1436 1435 1435 1435 1434 1433 1432 1431 1430 1429 1428 1428 1427 1426 1425 1425 1424 1424 1424 1424 1425 1425 1426 1427 1428 1430 1431 1432 1433 1434 1435 1437 1438 1439 1439 1440 1441
1439 1438 1437 1436 1435 1434 1434 1434 1433 1433 1432 1432 1431 1430 1429 1427 1426 1425 1424 1423 1423 1422 1422 1421 1421 1421 1421 1421 1421 1422 1423 1424 1425 1426 1428 1429 1430 1431 1432 1433 1433 1434 1435 1435
1437 1436 1435 1434 1433 1433 1432 1432 1431 1431 1430 1429 1428 1427 1426 1425 1424 1422 1421 1420 1419 1419 1418 1418 1417 1417 1417 1417 1418 1418 1419 1420 1421 1422 1423 1424 1425 1426 1427 1427 1428 1429 1429 1429
1436 1434 1433 1433 1432 1431 1431 1430 1429 1428 1428 1427 1426 1425 1424 1422 1421 1420 1418 1417 1416 1415 1415 1414 1414 1414 1414 1414 1414 1414 1415 1415 1416 1417 1418 1419 1420 1420 1421 1422 1422 1423 1423 1423
1435 1433 1432 1431 1431 1430 1429 1428 1427 1426 1425 1424 1423 1422 1421 1420 1418 1417 1415 1415 1414 1413 1412 1411 1411 1410 1410 1410 1410 1410 1411 1411 1412 1412 1413 1414 1414 1415 1416 1416 1416 1416 1416 1416
1433 1432 1431 1430 1429 1428 1428 1427 1426 1425 1423 1422 1421 1420 1418 1417 1416 1415 1413 1412 1411 1410 1409 1408 1407 1406 1406 1406 1406 1406 1406 1407 1407 1408 1408 1409 1409 1409 1410 1410 1410 1410 1410 1410
1432 1431 1430 1429 1428 1426 1426 1425 1424 1423 1421 1420 1418 1417 1416 1415 1413 1412 1411 1410 1408 1407 1405 1404 1403 1403 1402 1402 1402 1402 1402 1402 1403 1403 1403 1403 1404 1404 1404 1404 1404 1404 1404 1404
1430 1429 1428 1427 1426 1425 1423 1423 1422 1420 1419 1417 1416 1415 1413 1412 1410 1409 1408 1406 1405 1403 1402 1401 1400 1399 1399 1398 1398 1398 1398 1398 1398 1398 1398 1398 1398 1398 1398 1398 1398 1398 1398 1398
1427 1426 1425 1424 1423 1422 1421 1420 1419 1418 1416 1415 1414 1412 1411 1409 1408 1406 1405 1403 1402 1400 1399 1398 1397 1396 1395 1395 1394 1394 1394 1394 1394 1393 1393 1393 1393 1393 1393 1393 1393 1392 1392 1392
1424 1423 1422 1421 1421 1420 1419 1417 1416 1415 1414 1412 1411 1410 1408 1407 1405 1404 1402 1400 1399 1397 1396 1395 1394 1393 1392 1391 1391 1390 1390 1390 1389 1389 1389 1388 1388 1388 1388 1388 1387 1387 1387 1386
1421 1420 1419 1418 1418 1417 1416 1415 1414 1412 1411 1410 1408 1407 1406 1404 1402 1401 1399 1398 1396 1395 1394 1392 1391 1390 1389 1388 1388 1387 1386 1386 1385 1385 1384 1384 1384 1383 1383 1383 1382 1382 1382 1381